Regional Weather Roundup
Issued by NWS

Home | Current Version | Previous Version | Text Only | Print | Product List | Glossary Off
Versions: 1 2 3 4 5 6 7 8 9 10 11 12 13 14 15 16 17 18 19 20 21 22 23 24 25 26 27 28 29 30 31 32 33 34 35 36 37 38 39 40 41 42 43 44 45 46 47 48 49 50

000
ASUS45 KBOI 011810
RWRID
WEATHER ROUNDUP FOR IDAHO
NATIONAL WEATHER SERVICE BOISE ID
1100 AM MST SUN FEB 01 2015

NOTE: "FAIR" INDICATES FEW OR NO CLOUDS BELOW 12000 FEET
WITH NO SIGNIFICANT WEATHER AND/OR OBSTRUCTIONS TO VISIBILITY

IDZ012-014-011900-
SOUTHWEST IDAHO


CITY           SKY/WX    TMP DP  RH WIND       PRES   REMARKS
BOISE          CLOUDY    39  24  55 SE8       30.19R WCI  33
CALDWELL       CLOUDY    37  27  65 SE13      30.21S WCI  29
MOUNTAIN HOME  CLOUDY    33  28  82 E21       30.20R WCI  21
$$

IDZ016-017-011900-
SOUTHCENTRAL IDAHO


CITY           SKY/WX    TMP DP  RH WIND       PRES   REMARKS
BURLEY         CLOUDY    33  30  88 NE8       30.20S WCI  26
JEROME         CLOUDY    33  29  85 NE14      30.21S WCI  23
TWIN FALLS     CLOUDY    37  29  72 E6        30.20R WCI  32
$$

IDZ019>023-011900-
SOUTHEAST IDAHO


CITY           SKY/WX    TMP DP  RH WIND       PRES   REMARKS
IDAHO FALLS    CLOUDY    31  27  85 N7        30.24R WCI  24
POCATELLO      CLOUDY    31  28  89 N5        30.23S WCI  26
REXBURG        CLOUDY    27  22  81 CALM      30.23R
$$

IDZ006-010-011-018-031-032-011900-
CENTRAL IDAHO MOUNTAINS


CITY           SKY/WX    TMP DP  RH WIND       PRES   REMARKS
MCCALL         CLOUDY    26  18  71 CALM      30.13R
HAILEY         CLOUDY    23  12  63 CALM      30.21S
STANLEY          N/A     12   4  70 CALM      30.17S
SALMON         CLOUDY    23  18  80 CALM      30.25S
CHALLIS        CLOUDY    21  18  88 NE3       30.20F
$$

IDZ002-004-006-007-026-011900-
NORTHERN IDAHO


CITY           SKY/WX    TMP DP  RH WIND       PRES   REMARKS
LEWISTON       CLOUDY    35  31  85 W5        30.15S WCI  31
LOWELL           N/A     35  29  78 N3        30.20F
COEUR D`ALENE  CLOUDY    30  28  93 NE10      30.12S WCI  21
MULLAN PASS    SNOW      22  18  85 S9        30.00S VSB 1/2 WCI  12
$$



USA.gov is the U.S. government's official web portal to all federal, state and local government web resources and services.